EHI
0 0 0 0 0 0 0 0 0 0 0 0 0 0 0 0 0 0 0 0 0 0 2 8 13 16 17 16 17 18 16 13 13 15 14 13 12 11 8 5 4 4 5 5 4 3 3 2 1
0 0 0 0 0 0 0 0 0 0 0 0 0 0 0 0 0 0 0 0 0 0 3 9 14 16 18 17 17 18 15 12 13 14 13 11 11 10 8 6 5 4 4 5 4 3 3 3 2
0 0 0 0 0 0 0 0 0 0 0 0 0 0 0 0 0 0 0 0 0 1 4 8 13 15 17 18 17 16 14 11 11 13 12 11 10 10 9 7 6 6 5 4 4 3 3 3 3
0 0 0 0 0 0 0 0 0 0 0 0 0 0 0 0 0 0 0 0 0 1 4 8 11 13 15 16 15 14 13 12 11 11 11 10 10 11 10 8 7 7 6 4 3 3 3 3 3
0 0 0 0 0 0 0 0 0 0 0 0 0 0 0 0 0 0 0 0 0 2 4 6 9 10 12 13 13 13 13 12 11 9 9 8 9 10 9 8 7 7 6 4 3 4 3 3 3
0 0 0 0 0 0 0 0 0 0 0 0 0 0 0 0 0 0 0 0 1 2 3 5 6 8 9 11 11 12 13 12 10 7 6 7 8 8 8 8 8 7 6 4 3 4 4 3 3
0 0 0 0 0 0 0 0 0 0 0 0 0 0 0 0 0 0 0 0 1 2 3 3 4 6 7 9 10 11 11 10 8 6 5 6 6 5 5 7 7 6 4 3 2 3 3 3 3
0 0 0 0 0 0 0 0 0 0 0 0 0 0 0 0 0 0 0 0 1 1 2 3 3 4 4 5 6 7 7 6 4 3 3 4 4 4 4 5 5 4 3 3 2 2 3 4 4
0 0 0 0 0 0 0 0 0 0 0 0 0 0 0 0 0 0 0 0 0 0 1 2 3 3 3 2 2 2 2 1 1 1 1 1 3 3 3 3 3 3 3 2 2 3 3 3 3
0 0 0 0 0 0 0 0 0 0 0 0 0 0 0 0 0 0 0 0 0 0 0 1 2 3 2 1 0 0 0 0 0 0 0 1 2 3 3 1 1 2 2 1 2 2 2 2 1
0 0 0 0 0 0 0 0 0 0 0 0 0 0 0 0 0 0 0 0 0 0 0 0 1 2 2 1 0 0 0 0 0 0 0 0 1 2 2 1 0 1 1 0 1 1 1 0 0
0 0 0 0 0 0 0 0 0 0 0 0 0 0 0 0 0 0 0 0 0 0 0 0 0 1 2 1 0 0 0 0 0 0 0 0 0 1 1 1 0 0 0 0 0 0 0 0 0
0 0 0 0 0 0 0 0 0 0 0 0 0 0 0 0 0 0 0 0 0 0 0 0 0 1 2 2 0 0 0 0 0 0 0 0 0 0 0 0 0 0 0 0 0 0 0 0 0
0 0 0 0 0 0 0 0 0 0 0 0 0 0 0 0 0 0 0 0 0 0 0 0 0 1 1 1 0 0 0 0 0 0 0 0 0 0 0 0 0 0 0 0 0 0 0 0 0
0 0 0 0 0 0 0 0 0 0 0 0 0 0 0 0 0 0 0 0 0 0 0 0 1 1 0 0 0 0 0 0 0 0 0 0 0 0 0 0 0 0 0 0 0 0 0 0 0
0 0 0 0 0 0 0 0 0 0 0 0 0 0 0 0 0 0 0 0 0 0 0 0 0 0 0 0 0 0 0 0 0 0 0 0 0 0 0 0 0 0 0 0 0 0 0 0 0
0 0 0 0 0 0 0 0 0 0 0 0 0 0 0 0 0 0 0 0 0 0 0 0 0 0 0 0 0 0 0 0 0 0 0 0 0 0 0 0 0 0 0 0 0 0 0 0 0
0 0 0 0 0 0 0 0 0 0 0 0 0 0 0 0 0 0 0 0 0 0 0 0 0 0 0 0 0 0 0 0 0 0 0 0 0 0 0 0 0 0 0 0 0 0 0 0 0
0 0 0 0 0 0 0 0 0 0 0 0 0 0 0 0 0 0 0 0 0 0 0 0 0 0 0 0 0 0 0 0 0 0 0 0 0 0 0 0 0 0 0 0 0 0 0 0 0
0 0 0 0 0 0 0 0 0 0 0 0 0 0 0 0 0 0 0 0 0 0 0 0 0 0 0 0 0 0 0 0 0 0 0 0 0 0 0 0 0 0 0 0 0 0 0 0 0
0 0 0 0 0 0 0 0 0 0 0 0 0 0 0 0 0 0 0 0 0 0 0 0 0 0 0 0 0 0 0 0 0 0 0 0 0 0 0 0 0 0 0 0 0 0 0 0 0
0 0 0 0 0 0 0 0 0 0 0 0 0 0 0 0 0 0 0 0 0 0 0 0 0 0 0 0 0 0 0 0 0 0 0 0 0 0 0 0 0 0 0 0 0 0 0 0 0
0 0 0 0 0 0 0 0 0 0 0 0 0 0 0 0 0 0 0 0 0 0 0 0 0 0 0 1 1 1 0 0 0 0 0 0 0 0 0 0 0 0 0 0 0 0 0 0 0
0 0 0 0 0 0 0 0 0 0 0 0 0 0 0 0 0 0 0 0 0 0 0 0 0 0 0 1 2 2 1 0 0 0 0 0 0 0 0 0 0 0 0 0 0 0 0 0 0
0 0 0 0 0 0 0 0 0 0 0 0 0 0 0 0 0 0 0 0 0 0 0 0 0 0 0 0 1 1 1 0 0 0 0 0 0 0 0 0 0 0 0 0 0 0 0 0 0
0 0 0 0 0 0 0 0 0 0 0 0 0 0 0 0 0 0 0 0 0 0 0 0 0 0 0 0 0 1 1 0 0 0 0 0 0 0 0 0 0 0 0 0 0 0 0 0 0
0 0 0 0 0 0 0 0 0 0 0 0 0 0 0 0 0 0 0 0 0 0 0 0 0 0 0 0 0 1 1 0 0 0 0 0 0 0 0 0 0 0 0 0 0 0 0 0 0
0 0 0 0 0 0 0 0 0 0 0 0 0 0 0 0 0 0 0 0 0 0 0 0 0 0 0 0 0 1 1 0 0 0 0 0 0 0 0 0 0 0 0 0 0 0 0 0 0
0 0 0 0 0 0 0 0 0 0 0 0 0 0 0 0 0 0 0 0 0 0 0 0 0 0 0 0 0 0 0 0 0 0 0 0 0 0 0 0 0 0 0 0 0 0 0 0 0
0 0 0 0 0 0 0 0 0 0 0 0 0 0 0 0 0 0 0 0 0 0 0 0 0 0 0 0 0 0 0 0 0 0 0 0 0 0 0 0 0 0 0 0 0 0 0 0 0
Wind_Speed
2 3 3 3 4 1 5 6 3 3 4 3 2 2 3 4 4 4 2 4 3 6 9 12 15 15 15 14 14 13 13 12 11 11 11 11 11 11 11 11 10 10 10 9 9 10 10 10 10
2 2 4 4 3 3 7 5 5 6 4 3 2 1 1 4 2 2 2 2 4 6 8 8 14 15 15 15 14 14 13 12 12 11 11 11 11 11 11 11 10 9 9 9 9 9 9 9 9
2 3 3 3 4 7 6 3 5 5 5 2 3 2 2 3 2 2 2 3 4 5 6 8 14 15 15 15 15 14 14 13 12 12 11 11 11 11 11 11 10 9 9 8 8 9 9 8 8
3 3 3 2 9 7 5 3 2 4 4 2 1 4 3 2 1 2 1 5 5 4 5 7 13 15 15 15 15 14 14 14 13 12 12 11 11 11 11 10 9 9 9 9 8 8 9 8 8
3 3 1 5 9 6 5 5 3 3 3 3 1 4 5 2 2 1 2 4 5 4 4 5 12 14 14 14 14 14 14 14 14 13 13 12 11 11 11 10 10 9 9 9 9 9 8 8 8
3 3 2 7 8 6 5 4 3 3 4 4 2 3 5 2 2 1 2 3 4 5 4 5 11 12 13 13 13 13 13 13 14 14 13 13 12 11 11 10 10 10 9 9 9 9 9 8 8
3 2 5 6 6 6 4 2 3 4 5 5 2 3 5 4 3 1 1 3 3 3 4 4 5 8 10 12 12 12 13 13 13 13 13 12 12 12 12 11 11 10 10 10 10 10 9 9 9
3 2 4 5 6 7 3 2 3 4 6 3 2 3 6 5 3 2 2 2 3 3 4 4 4 5 5 7 10 10 11 12 12 12 10 10 10 11 11 10 11 11 10 10 10 10 10 9 9
3 2 6 7 6 5 2 3 4 3 3 3 3 5 5 3 1 1 1 0 2 4 4 5 5 5 5 5 7 8 9 10 10 9 9 8 5 6 6 8 10 12 12 11 11 10 10 9 8
3 5 9 5 3 4 5 5 5 4 5 5 5 5 3 1 2 4 4 5 6 7 7 6 6 6 5 5 4 4 5 5 6 4 5 4 4 4 5 8 10 11 11 11 12 11 9 5 3
4 7 5 5 4 5 6 6 4 5 8 8 8 7 4 3 4 5 6 7 8 7 7 7 7 7 6 5 4 3 3 3 4 5 5 4 4 3 3 3 5 6 7 5 6 5 3 3 3
3 6 6 6 4 5 7 6 6 8 11 8 7 6 4 5 7 8 8 7 6 6 8 8 8 7 7 6 5 4 3 3 4 5 6 4 3 3 3 3 3 3 3 4 3 3 4 4 5
4 6 6 8 9 8 8 10 9 11 12 9 7 6 7 8 9 8 7 6 6 7 8 9 9 9 8 7 6 5 5 5 5 4 6 6 5 5 4 3 3 4 3 4 4 4 5 5 5
4 5 7 8 9 7 8 10 7 11 7 6 6 7 7 8 8 6 5 7 7 7 8 8 9 10 9 8 7 6 6 6 5 5 7 8 6 5 5 5 4 4 4 4 5 6 5 5 4
2 5 8 6 5 4 4 9 9 10 5 7 8 8 8 7 7 7 6 6 6 6 6 7 8 9 9 9 8 6 6 6 6 6 7 8 7 7 6 5 5 5 5 5 4 5 4 5 5
1 2 5 5 3 3 2 11 9 5 5 9 9 8 8 7 7 6 5 5 5 4 5 6 6 7 9 8 8 6 6 7 6 6 6 8 9 8 7 6 6 6 5 4 4 4 4 5 5
1 3 5 7 3 2 3 12 11 7 6 9 9 8 7 6 5 5 4 4 4 4 4 5 6 7 8 8 6 6 6 7 6 6 7 8 10 10 8 7 6 6 5 5 6 5 5 5 6
4 4 5 6 5 5 8 15 16 10 8 9 7 5 4 5 6 5 4 4 3 3 3 4 5 5 5 5 4 4 5 6 6 7 8 9 9 10 9 7 7 7 6 6 5 6 5 5 5
4 5 8 9 7 6 10 15 16 11 7 7 5 4 4 5 5 3 3 3 3 2 2 3 4 4 4 4 4 5 6 6 6 7 9 10 10 10 10 8 8 8 8 8 8 6 6 5 3
5 7 8 9 5 5 9 13 12 9 6 5 5 4 4 4 4 4 3 2 2 3 3 4 4 4 5 5 5 5 4 4 5 5 7 9 10 10 10 10 9 9 8 8 8 6 5 4 5
6 7 7 8 8 4 6 9 6 5 3 3 3 3 3 4 5 5 3 3 3 3 4 4 5 5 5 5 3 2 2 2 3 5 7 9 10 10 10 11 10 9 9 9 10 9 9 6 5
7 6 7 6 4 5 2 7 8 5 5 4 4 3 4 5 4 4 3 3 3 4 4 4 4 5 5 5 4 5 5 6 7 6 6 7 9 10 11 11 11 10 9 9 10 10 8 7 6
6 3 4 4 4 5 3 4 10 4 4 4 4 4 4 4 4 4 4 4 4 4 4 4 4 4 4 5 6 6 7 7 5 4 6 7 8 10 11 11 11 11 10 10 10 10 10 9 8
2 1 2 1 1 4 4 5 9 4 4 4 3 4 4 4 4 4 4 3 4 4 4 4 4 5 4 5 6 7 8 7 6 6 6 6 6 7 10 11 11 11 10 11 11 11 11 10 9
2 3 3 4 2 6 2 4 10 6 4 3 4 5 4 3 3 4 4 4 4 5 5 4 4 5 5 5 6 7 8 8 8 7 7 6 5 6 9 10 10 10 10 10 9 10 10 11 11
3 5 4 4 4 5 3 7 9 5 3 2 3 3 3 4 4 4 5 4 5 5 5 5 5 6 5 5 5 6 6 5 5 6 6 6 6 7 7 10 11 11 11 10 9 8 9 9 11
3 4 3 2 2 4 6 7 10 3 3 3 4 5 5 5 5 6 6 5 5 6 6 5 5 5 5 5 5 5 5 5 6 6 6 6 6 5 6 7 9 10 11 10 10 9 10 9 10
4 5 3 3 3 5 6 6 6 4 4 4 4 5 6 6 6 7 6 6 6 6 6 5 5 5 5 5 5 4 5 6 6 5 6 7 7 6 6 7 8 9 10 10 10 9 9 10 10
3 3 4 3 3 4 5 8 6 6 3 3 4 4 5 6 7 7 7 7 6 6 5 5 4 5 5 5 5 5 5 5 6 6 7 7 6 7 7 8 8 9 10 10 10 11 10 11 11
5 6 6 5 5 4 4 10 5 4 3 2 4 5 5 6 6 6 7 7 7 6 5 5 4 5 5 5 5 5 5 5 6 7 7 6 6 6 7 7 7 9 9 10 10 11 11 11 12
Wind_Direction
43 82 76 61 58 47 245 242 229 261 247 244 235 208 198 201 192 234 298 154 159 159 173 185 178 175 175 174 170 165 162 161 159 156 155 155 155 153 151 149 145 142 137 136 136 133 133 131 128
104 89 61 68 115 227 252 234 230 233 252 312 313 249 253 260 248 264 314 212 166 163 172 182 180 177 177 177 173 169 168 165 163 161 160 160 160 160 160 157 152 149 143 141 141 140 140 137 135
99 71 93 101 189 211 236 233 235 262 275 295 309 289 239 258 269 253 259 175 150 162 174 182 181 180 180 180 177 174 172 171 170 169 167 167 166 166 166 165 160 155 150 148 148 147 148 145 144
90 58 66 173 234 230 230 257 279 307 315 293 273 297 283 271 278 276 215 150 149 164 172 184 183 184 185 184 181 179 177 177 177 176 175 175 174 173 171 168 165 164 162 158 157 155 156 153 153
69 90 148 246 247 247 249 268 283 296 303 308 313 282 279 298 352 53 112 150 158 167 171 185 187 187 189 188 186 184 182 183 183 182 182 182 181 178 176 173 172 174 174 172 170 169 164 162 166
74 88 191 244 255 263 259 257 269 275 283 299 300 275 266 284 3 6 125 155 163 166 170 183 193 193 192 192 190 188 187 188 189 189 190 189 189 184 183 183 183 182 182 183 184 182 176 174 174
126 146 223 248 267 270 262 251 229 258 271 267 252 271 283 299 321 10 109 137 153 165 171 186 194 197 198 198 197 197 195 195 193 194 195 195 193 192 192 190 190 188 188 190 193 192 186 185 184
135 139 241 246 253 263 269 283 246 243 261 259 188 229 268 292 350 47 68 110 158 179 187 193 197 195 195 199 201 201 201 200 199 198 196 194 194 195 194 194 195 195 195 196 199 200 194 192 189
106 155 236 237 239 261 282 289 283 263 248 264 235 237 265 305 8 80 61 29 203 206 206 201 200 200 195 195 201 201 203 202 200 200 195 192 191 191 192 197 200 202 202 201 203 205 203 196 192
136 211 236 235 236 275 293 278 284 292 275 271 274 274 289 277 216 199 206 216 219 219 211 206 204 203 198 201 195 198 200 198 197 191 188 184 179 187 189 197 203 208 207 207 207 208 206 196 179
186 221 249 259 259 274 285 283 278 266 267 252 258 273 274 252 245 231 226 222 222 223 215 209 207 203 200 200 191 194 195 193 192 188 184 177 174 181 188 191 203 206 206 202 205 203 190 180 176
223 246 248 267 278 282 274 278 274 244 252 261 255 257 252 250 248 241 236 235 233 228 226 214 207 205 204 201 198 194 194 198 199 193 186 180 181 185 188 191 196 197 194 188 188 188 187 187 188
236 263 261 264 274 268 272 265 265 260 264 275 275 268 254 253 252 254 250 246 236 232 230 221 207 207 204 201 203 203 201 203 204 196 195 190 190 195 196 197 196 198 194 191 190 192 194 197 198
249 270 279 275 271 268 265 269 259 263 264 277 279 271 262 254 253 261 258 245 240 239 236 226 211 210 205 204 205 206 205 204 200 204 204 199 199 198 198 201 201 202 198 198 198 198 199 204 203
277 296 296 273 266 266 285 282 243 256 276 279 279 275 271 263 260 252 248 247 242 243 243 235 217 209 207 209 209 207 204 201 205 208 207 206 206 202 201 204 208 209 201 197 201 205 202 207 210
327 301 287 284 284 276 262 271 266 274 285 280 278 275 273 268 259 254 253 258 255 247 246 243 230 210 211 213 213 210 204 205 209 209 208 210 211 207 203 207 213 206 194 194 199 205 208 215 215
326 271 267 291 286 285 253 269 278 290 283 277 278 276 273 276 272 264 258 257 262 245 247 246 233 216 212 215 217 214 209 210 211 208 210 212 212 210 208 211 212 199 198 203 208 210 206 214 219
247 259 266 269 285 286 267 268 280 285 275 272 278 277 273 271 267 265 263 263 269 258 253 253 241 225 214 209 212 215 217 217 214 214 215 212 212 209 210 213 209 198 201 208 209 215 212 213 210
232 253 270 270 275 284 267 274 283 285 279 275 273 272 268 265 273 279 271 269 276 278 270 265 254 238 210 203 204 211 220 221 222 221 219 216 215 211 210 214 209 204 208 212 209 211 212 215 186
239 264 273 283 279 278 281 280 279 274 258 246 254 262 263 280 299 299 291 286 277 266 260 256 251 241 219 214 213 214 220 227 228 226 222 217 217 214 213 213 213 209 210 210 208 206 206 207 184
238 234 250 272 306 296 308 297 287 285 282 273 263 261 263 263 271 289 292 284 284 274 262 257 248 244 233 222 216 220 218 233 229 228 225 220 216 215 214 214 213 211 208 212 210 205 204 208 203
255 233 238 266 304 297 359 299 286 286 301 285 279 283 274 271 269 280 293 301 291 274 274 267 259 249 239 221 209 209 217 227 230 229 231 226 218 218 216 214 213 211 211 214 213 209 207 199 206
232 244 243 256 250 281 261 245 282 302 282 282 280 284 280 271 264 274 281 281 283 281 284 278 274 264 248 226 217 217 227 234 239 236 235 231 223 219 217 216 214 213 213 215 212 209 207 205 207
217 360 344 21 110 265 234 203 279 261 248 286 299 304 296 288 284 290 301 308 310 309 303 292 284 271 256 236 225 222 232 241 244 240 236 235 228 223 221 217 216 216 215 215 213 212 210 210 210
98 74 356 338 324 255 229 222 253 258 248 256 283 301 310 304 304 311 318 320 316 316 309 304 299 287 273 251 240 234 235 235 236 240 238 239 236 228 225 218 217 217 217 216 213 213 215 212 212
182 156 178 233 253 288 289 242 255 269 277 281 290 303 314 313 314 312 304 299 300 306 307 305 301 293 287 266 255 248 244 238 239 242 242 241 240 237 233 224 220 219 216 216 212 214 216 216 217
158 198 178 165 253 271 266 279 297 298 324 340 346 347 330 321 320 315 314 307 302 305 302 298 295 294 293 282 269 262 254 247 248 249 244 245 247 247 241 232 226 221 218 215 212 217 216 217 221
175 157 127 167 232 263 279 266 253 282 295 321 343 333 326 327 328 326 321 315 306 301 299 303 300 294 293 288 276 273 263 254 254 258 255 251 251 250 248 239 230 224 220 218 216 220 218 217 222
158 169 168 179 195 210 270 267 228 222 242 276 297 307 315 324 322 320 317 313 309 310 310 307 304 302 300 296 290 284 278 272 267 261 257 256 256 250 246 241 233 229 224 220 221 224 220 221 225
187 190 166 184 232 213 241 269 259 230 250 257 290 306 318 321 316 313 312 315 318 315 309 302 300 298 293 293 292 288 283 279 274 269 266 262 262 258 250 247 238 235 229 223 222 228 225 224 226